{"data":{"norad_id":62588,"epoch":"2026-05-25T00:46:30.427968Z","epoch_age_seconds":73019,"freshness":"FRESH","line1":"1 62588U 25008B   26145.03229662  .00180239  00000+0  13759-2 0  9991","line2":"2 62588  43.0038  25.7567 0002345 266.3833  93.6767 15.70873072 78122","mean_motion":15.70873072,"eccentricity":0.0002345,"inclination_deg":43.0038,"raan_deg":25.7567,"arg_perigee_deg":266.3833,"mean_anomaly_deg":93.6767,"bstar":0.0013759,"rev_number":7812,"period_min":91.668768512699,"perigee_km":354.82128820895,"apogee_km":357.97978631392,"semimajor_km":6734.5375372614,"source":"CELESTRAK","updated_at":"2026-05-25T13:38:19.733054Z"}}